CFG91A LGKF-LBBG

Flight info

Callsign CFG91A
Flight time N/A
Altitude 37000
Route GARTA DCT TSL/N0442F360 UM987 ATFIR T516 PDV/N0443F370 T517 RUEXX
Aircraft A321/M-SDE3FGHIRWY/LB1

Departure

Time 2026-04-30 14:20
Airport Kefallinia Airport (LGKF)

Arrival

Time N/A
Airport Burgas Airport (LBBG)
Time Latitude Longitude Altitude Speed Heading
2026-04-30 13:34 38.11882 20.50420 59 ft 0 kts 62°
2026-04-30 13:59 38.11883 20.50437 55 ft 10 kts 163°
2026-04-30 13:59 38.11857 20.50420 54 ft 7 kts 285°
2026-04-30 14:00 38.11885 20.50416 52 ft 5 kts 26°
2026-04-30 14:00 38.11886 20.50417 52 ft 0 kts 27°
2026-04-30 14:09 38.11885 20.50417 52 ft 2 kts 27°
2026-04-30 14:09 38.11883 20.50388 53 ft 4 kts 149°
2026-04-30 14:10 38.11897 20.50377 53 ft 1 kts 148°
2026-04-30 14:10 38.11898 20.50376 54 ft 1 kts 148°
2026-04-30 14:12 38.11894 20.50379 53 ft 5 kts 149°
2026-04-30 14:13 38.11837 20.50396 58 ft 6 kts 195°
2026-04-30 14:13 38.11792 20.50361 56 ft 13 kts 212°
2026-04-30 14:13 38.11696 20.50318 62 ft 14 kts 179°
2026-04-30 14:13 38.11620 20.50370 59 ft 11 kts 144°
2026-04-30 14:14 38.11563 20.50420 62 ft 9 kts 144°
2026-04-30 14:14 38.11516 20.50464 61 ft 8 kts 144°
2026-04-30 14:14 38.11475 20.50494 58 ft 7 kts 147°
2026-04-30 14:14 38.11412 20.50547 65 ft 15 kts 147°
2026-04-30 14:15 38.11300 20.50641 65 ft 22 kts 146°
2026-04-30 14:15 38.11175 20.50744 66 ft 20 kts 152°
2026-04-30 14:15 38.11087 20.50824 67 ft 3 kts 78°
2026-04-30 14:15 38.11095 20.50823 63 ft 0 kts 351°
2026-04-30 14:16 38.11098 20.50817 65 ft 3 kts 315°
2026-04-30 14:16 38.11118 20.50795 61 ft 0 kts 324°
2026-04-30 14:19 38.11240 20.50695 65 ft 63 kts 326°
2026-04-30 14:20 38.11858 20.50170 57 ft 147 kts 326°
2026-04-30 14:20 38.12790 20.49355 575 ft 175 kts 323°
2026-04-30 14:20 38.14748 20.47587 1973 ft 181 kts 322°
2026-04-30 14:21 38.15841 20.46595 2214 ft 205 kts 323°
2026-04-30 14:21 38.17066 20.45487 2524 ft 228 kts 323°
2026-04-30 14:21 38.19834 20.42997 3750 ft 251 kts 323°
2026-04-30 14:22 38.21273 20.41705 4572 ft 255 kts 321°
2026-04-30 14:22 38.24222 20.39057 6133 ft 261 kts 322°
2026-04-30 14:22 38.25713 20.37717 6915 ft 263 kts 321°
2026-04-30 14:23 38.28732 20.34998 8384 ft 268 kts 321°
2026-04-30 14:23 38.31813 20.32227 9848 ft 274 kts 321°
2026-04-30 14:24 38.35482 20.30375 10439 ft 322 kts 359°
2026-04-30 14:24 38.37697 20.31235 10721 ft 348 kts 28°
2026-04-30 14:25 38.41596 20.35105 11877 ft 360 kts 37°
2026-04-30 14:25 38.45391 20.39387 13168 ft 366 kts 38°
2026-04-30 14:26 38.49272 20.43698 14361 ft 373 kts 37°
2026-04-30 14:26 38.51256 20.45854 14912 ft 376 kts 36°
2026-04-30 14:26 38.55288 20.50197 16023 ft 381 kts 36°
2026-04-30 14:27 38.57297 20.52358 16547 ft 384 kts 36°
2026-04-30 14:27 38.59348 20.54566 17089 ft 387 kts 36°
2026-04-30 14:27 38.61416 20.56797 17628 ft 390 kts 36°
2026-04-30 14:28 38.65613 20.61335 18687 ft 398 kts 36°
2026-04-30 14:28 38.67730 20.63632 19140 ft 400 kts 36°
2026-04-30 14:28 38.69858 20.65947 19594 ft 403 kts 36°
2026-04-30 14:28 38.71999 20.68276 20044 ft 405 kts 36°
2026-04-30 14:29 38.76323 20.72977 20860 ft 410 kts 36°
2026-04-30 14:29 38.80690 20.77733 21653 ft 414 kts 36°
2026-04-30 14:30 38.87327 20.84988 22843 ft 420 kts 37°
2026-04-30 14:31 38.91769 20.89845 23601 ft 424 kts 37°
2026-04-30 14:31 38.96290 20.94797 24256 ft 428 kts 37°
2026-04-30 14:31 38.98563 20.97289 24582 ft 430 kts 37°
2026-04-30 14:32 39.03140 21.02310 25216 ft 434 kts 37°
2026-04-30 14:32 39.05441 21.04842 25544 ft 436 kts 37°
2026-04-30 14:32 39.07751 21.07389 25870 ft 438 kts 37°
2026-04-30 14:33 39.10072 21.09951 26190 ft 440 kts 37°
2026-04-30 14:33 39.14741 21.15102 26839 ft 444 kts 37°
2026-04-30 14:33 39.17085 21.17694 27158 ft 445 kts 37°
2026-04-30 14:34 39.19441 21.20300 27455 ft 447 kts 37°
2026-04-30 14:34 39.21803 21.22915 27757 ft 449 kts 37°
2026-04-30 14:34 39.24178 21.25549 28064 ft 451 kts 37°
2026-04-30 14:34 39.26530 21.28159 28368 ft 453 kts 37°
2026-04-30 14:35 39.31321 21.33481 28931 ft 456 kts 37°
2026-04-30 14:35 39.33730 21.36163 29257 ft 458 kts 37°
2026-04-30 14:35 39.36149 21.38857 29522 ft 460 kts 37°
2026-04-30 14:36 39.38580 21.41568 29781 ft 462 kts 37°
2026-04-30 14:36 39.41025 21.44297 30038 ft 464 kts 37°
2026-04-30 14:36 39.43474 21.47033 30259 ft 466 kts 37°
2026-04-30 14:36 39.45938 21.49787 30494 ft 468 kts 37°
2026-04-30 14:37 39.48403 21.52542 30693 ft 469 kts 37°
2026-04-30 14:37 39.50879 21.55315 30871 ft 471 kts 37°
2026-04-30 14:37 39.53360 21.58100 31076 ft 473 kts 37°
2026-04-30 14:37 39.55852 21.60893 31281 ft 474 kts 37°
2026-04-30 14:38 39.58341 21.63687 31547 ft 473 kts 37°
2026-04-30 14:38 39.60791 21.66447 31803 ft 473 kts 37°
2026-04-30 14:38 39.63271 21.69248 32076 ft 472 kts 37°
2026-04-30 14:38 39.65750 21.72048 32345 ft 472 kts 37°
2026-04-30 14:39 39.68229 21.74843 32603 ft 472 kts 37°
2026-04-30 14:39 39.70708 21.77637 32828 ft 473 kts 36°
2026-04-30 14:39 39.73203 21.80448 33013 ft 475 kts 36°
2026-04-30 14:40 39.78183 21.86070 33609 ft 473 kts 37°
2026-04-30 14:40 39.80665 21.88880 33884 ft 473 kts 37°
2026-04-30 14:40 39.83146 21.91697 34136 ft 473 kts 37°
2026-04-30 14:40 39.85616 21.94512 34385 ft 472 kts 37°
2026-04-30 14:41 39.88088 21.97331 34588 ft 472 kts 36°
2026-04-30 14:41 39.90557 22.00149 34812 ft 472 kts 36°
2026-04-30 14:41 39.93024 22.02959 35027 ft 471 kts 36°
2026-04-30 14:41 39.95487 22.05764 35235 ft 470 kts 36°
2026-04-30 14:42 39.97944 22.08566 35465 ft 469 kts 36°
2026-04-30 14:42 40.00370 22.11332 35693 ft 468 kts 36°
2026-04-30 14:42 40.02817 22.14128 35931 ft 468 kts 35°
2026-04-30 14:42 40.05264 22.16927 36088 ft 468 kts 36°
2026-04-30 14:43 40.07711 22.19735 36258 ft 468 kts 36°
2026-04-30 14:43 40.10157 22.22545 36443 ft 468 kts 36°
2026-04-30 14:43 40.12596 22.25349 36613 ft 467 kts 35°
2026-04-30 14:43 40.15038 22.28156 36749 ft 468 kts 35°
2026-04-30 14:44 40.17481 22.30965 36939 ft 466 kts 36°
2026-04-30 14:44 40.19919 22.33769 37057 ft 465 kts 35°
2026-04-30 14:44 40.24786 22.39371 37043 ft 465 kts 35°
2026-04-30 14:45 40.29607 22.44937 37047 ft 465 kts 35°
2026-04-30 14:45 40.34445 22.50543 37054 ft 464 kts 36°
2026-04-30 14:46 40.39279 22.56173 37053 ft 467 kts 35°
2026-04-30 14:46 40.44141 22.61838 37053 ft 468 kts 35°
2026-04-30 14:47 40.49017 22.67519 37058 ft 468 kts 35°
2026-04-30 14:47 40.53892 22.73210 37062 ft 469 kts 35°
2026-04-30 14:48 40.58761 22.78913 37058 ft 469 kts 36°
2026-04-30 14:48 40.63641 22.84613 37069 ft 469 kts 36°
2026-04-30 14:49 40.68516 22.90315 37097 ft 469 kts 35°
2026-04-30 14:49 40.73355 22.96002 37084 ft 470 kts 36°
2026-04-30 14:50 40.80683 23.04653 37051 ft 471 kts 36°
2026-04-30 14:51 40.87986 23.13305 37044 ft 471 kts 36°
2026-04-30 14:52 40.95310 23.21997 37042 ft 472 kts 36°
2026-04-30 14:52 41.02561 23.30751 37068 ft 473 kts 37°
2026-04-30 14:53 41.09787 23.39717 37051 ft 475 kts 37°
2026-04-30 14:54 41.19487 23.51719 37063 ft 477 kts 37°
2026-04-30 14:55 41.26747 23.60729 37059 ft 479 kts 37°
2026-04-30 14:56 41.36686 23.72417 37065 ft 465 kts 20°
2026-04-30 14:57 41.45455 23.77706 37048 ft 462 kts 15°
2026-04-30 14:57 41.51174 23.81752 37088 ft 478 kts 34°
2026-04-30 14:58 41.55062 23.89040 37105 ft 495 kts 59°
2026-04-30 14:58 41.59710 24.01404 37111 ft 497 kts 59°
2026-04-30 15:00 41.67478 24.22020 37163 ft 497 kts 59°
2026-04-30 15:01 41.73630 24.38499 37174 ft 497 kts 59°
2026-04-30 15:01 41.78259 24.50949 37195 ft 497 kts 59°
2026-04-30 15:02 41.81338 24.59267 37189 ft 497 kts 60°
2026-04-30 15:03 41.88991 24.80027 37212 ft 498 kts 60°
2026-04-30 15:04 41.96624 25.00903 37189 ft 499 kts 60°
2026-04-30 15:06 42.04283 25.21961 35129 ft 518 kts 59°
2026-04-30 15:06 42.07478 25.30790 33448 ft 521 kts 59°
2026-04-30 15:07 42.10582 25.39446 32542 ft 507 kts 59°
2026-04-30 15:07 42.13623 25.47928 31444 ft 499 kts 60°
2026-04-30 15:08 42.16118 25.54882 30553 ft 493 kts 60°
2026-04-30 15:08 42.20530 25.67228 28903 ft 480 kts 61°
2026-04-30 15:09 42.23381 25.75259 27883 ft 470 kts 62°
2026-04-30 15:09 42.26169 25.83122 26855 ft 459 kts 62°
2026-04-30 15:10 42.28170 25.91133 25810 ft 448 kts 85°
2026-04-30 15:11 42.29065 26.07542 23781 ft 427 kts 88°
2026-04-30 15:11 42.29467 26.15453 22677 ft 418 kts 87°
2026-04-30 15:12 42.30065 26.27038 21087 ft 407 kts 87°
2026-04-30 15:13 42.30455 26.34593 20075 ft 399 kts 87°
2026-04-30 15:14 42.31179 26.49331 18103 ft 388 kts 87°
2026-04-30 15:14 42.31696 26.60043 16642 ft 378 kts 88°
2026-04-30 15:16 42.32522 26.77410 14381 ft 363 kts 89°
2026-04-30 15:17 42.33130 26.90460 13298 ft 331 kts 89°
2026-04-30 15:18 42.33796 27.05525 11426 ft 312 kts 88°
2026-04-30 15:19 42.34167 27.14178 10299 ft 304 kts 89°